DW9433 Weather Reports


Display with metric or nautical units.
time (UTC)temp
F
wind
direction
speed
MPH
gust
MPH
rain 1hr
in
rain 24hr
in
rain mn
in
humidity
%
barometer
mb
20260904093025 75 319 0.0 0.0 0.00 0.00 0.00 93 1013.5
20260904091523 75 319 0.0 0.0 0.00 0.00 0.00 92 1013.3
20260904090022 76 319 0.0 0.0 0.00 0.00 0.00 92 1013.3
20260904084522 76 319 0.0 0.0 0.00 0.00 0.00 92 1013.2
20260904083023 76 319 0.0 0.0 0.00 0.00 0.00 92 1013.1
20260904081517 76 319 0.0 0.0 0.00 0.00 0.00 91 1013.0
20260904080017 76 319 0.0 0.0 0.00 0.00 0.00 91 1013.0
20260904074516 77 319 0.0 0.0 0.00 0.00 0.00 91 1012.9
20260904073015 77 319 0.0 0.0 0.00 0.00 0.00 90 1013.0
20260904071515 77 319 0.0 0.0 0.00 0.00 0.00 90 1013.1
20260904070032 77 319 0.0 0.0 0.00 0.00 0.00 90 1013.0
20260904064510 78 319 0.0 0.0 0.00 0.00 0.00 89 1013.0
20260904063014 78 319 0.0 0.0 0.00 0.00 0.00 89 1013.2
20260904061508 78 319 0.0 0.0 0.00 0.00 0.00 89 1013.3
20260904060007 78 319 0.0 0.0 0.00 0.00 0.00 88 1013.1
20260904054506 78 319 0.0 0.0 0.00 0.00 0.00 88 1013.1
20260904053005 79 319 0.0 0.0 0.00 0.00 0.00 87 1013.1
20260904051503 79 319 0.0 0.0 0.00 0.00 0.00 86 1013.1
20260904050059 79 319 0.0 0.0 0.00 0.00 0.00 86 1013.1
20260904044610 80 319 0.0 0.0 0.00 0.00 0.00 86 1013.1
20260904043059 80 319 0.0 0.0 0.00 0.00 0.00 85 1013.1
20260904041559 80 319 0.0 0.0 0.00 0.00 0.00 85 1013.2
20260904040058 81 319 0.0 0.0 0.00 0.00 0.00 84 1013.2
20260904034600 81 319 0.0 0.0 0.00 0.00 0.00 84 1013.2
20260904033058 81 319 0.0 0.0 0.00 0.00 0.00 84 1013.3
20260904031556 81 319 0.0 0.0 0.00 0.00 0.00 83 1013.4
20260904030059 81 321 0.0 0.0 0.00 0.00 0.00 84 1013.4
20260904024559 82 321 0.0 0.0 0.00 0.00 0.00 84 1013.2
20260904023100 82 320 0.0 0.0 0.00 0.00 0.00 83 1013.1
20260904021556 83 321 0.0 0.0 0.00 0.00 0.00 81 1013.1
20260904020055 83 321 0.0 0.0 0.00 0.00 0.00 80 1012.9
20260904014554 84 321 0.0 0.0 0.00 0.00 0.00 79 1012.7
20260904013053 84 321 0.0 0.0 0.00 0.00 0.00 78 1012.7
20260904011608 85 321 0.0 0.0 0.00 0.00 0.00 76 1012.5
20260904010105 86 321 0.0 0.0 0.00 0.00 0.00 75 1012.4
20260904004556 87 321 0.0 0.0 0.00 0.00 0.00 74 1012.3
20260904003052 88 321 0.0 0.0 0.00 0.00 0.00 72 1012.4
20260904001552 89 321 0.0 0.0 0.00 0.00 0.00 69 1012.4
20260904000058 90 321 0.0 0.0 0.00 0.00 0.00 67 1012.1
20260903234550 91 320 0.0 0.0 0.00 0.00 0.00 66 1012.2
20260903233050 92 320 0.0 0.0 0.00 0.00 0.00 64 1012.1
20260903231550 93 320 0.0 0.0 0.00 0.00 0.00 58 1012.0
20260903230050 94 22 0.0 0.0 0.00 0.00 0.00 60 1011.9
20260903224548 95 22 0.0 0.0 0.00 0.00 0.00 54 1011.8
20260903223050 96 22 0.0 0.0 0.00 0.00 0.00 52 1011.8
20260903221547 97 22 0.0 0.0 0.00 0.00 0.00 51 1011.8
20260903220057 96 22 0.0 0.0 0.00 0.00 0.00 53 1011.7
20260903214546 96 22 0.0 0.0 0.00 0.00 0.00 54 1011.8
20260903213055 95 22 0.0 0.0 0.00 0.00 0.00 54 1011.9
20260903211551 95 22 0.0 0.0 0.00 0.00 0.00 56 1012.0
20260903210045 96 22 0.0 0.0 0.00 0.00 0.00 56 1012.3
20260903204540 97 22 0.0 0.0 0.00 0.00 0.00 51 1012.4
20260903203103 97 23 0.0 0.0 0.00 0.00 0.00 51 1012.5
20260903201539 97 25 0.0 0.0 0.00 0.00 0.00 53 1012.6
20260903200036 97 26 0.0 0.0 0.00 0.00 0.00 53 1012.9
20260903194537 97 24 0.0 3.0 0.00 0.00 0.00 52 1013.0
20260903193038 98 42 0.0 1.0 0.00 0.00 0.00 49 1013.2
20260903191531 98 22 0.0 1.0 0.00 0.00 0.00 51 1013.4
20260903190030 98 25 0.0 3.0 0.00 0.00 0.00 50 1013.6
20260903184530 97 60 0.0 0.0 0.00 0.00 0.00 53 1013.7
20260903183028 98 57 0.0 0.0 0.00 0.00 0.00 49 1014.0
20260903181524 98 160 0.0 1.0 0.00 0.00 0.00 49 1014.1
20260903180024 98 159 0.0 2.0 0.00 0.00 0.00 52 1014.4
20260903174524 97 329 0.0 0.0 0.00 0.00 0.00 53 1014.5
20260903173020 97 298 0.0 0.0 0.00 0.00 0.00 54 1014.6
20260903171520 97 246 0.0 1.0 0.00 0.00 0.00 52 1014.8
20260903170018 97 156 0.0 0.0 0.00 0.00 0.00 54 1015.1
20260903164517 97 155 0.0 6.0 0.00 0.00 0.00 55 1015.1
20260903163016 97 178 0.0 1.0 0.00 0.00 0.00 53 1015.3
20260903161512 96 47 0.0 1.0 0.00 0.00 0.00 55 1015.4
20260903160012 95 31 0.0 1.0 0.00 0.00 0.00 58 1015.5
20260903154510 95 134 0.0 0.0 0.00 0.00 0.00 58 1015.5
20260903153008 94 29 0.0 0.0 0.00 0.00 0.00 58 1015.5
20260903151507 94 178 0.0 0.0 0.00 0.00 0.00 59 1015.5
20260903150004 93 179 0.0 0.0 0.00 0.00 0.00 59 1015.5
20260903144607 92 166 0.0 0.0 0.00 0.00 0.00 62 1015.7
20260903143055 91 139 0.0 1.0 0.00 0.00 0.00 65 1015.8
20260903141553 89 175 0.0 0.0 0.00 0.00 0.00 70 1015.6
20260903140048 87 118 0.0 1.0 0.00 0.00 0.00 73 1015.7
20260903134544 85 11 0.0 0.0 0.00 0.00 0.00 76 1015.7
20260903133044 82 11 0.0 0.0 0.00 0.00 0.00 80 1015.7
20260903131534 79 11 0.0 0.0 0.00 0.00 0.00 85 1015.7
20260903130033 76 11 0.0 0.0 0.00 0.00 0.00 89 1015.8
20260903124533 75 11 0.0 0.0 0.00 0.00 0.00 91 1015.9
20260903123032 75 11 0.0 0.0 0.00 0.00 0.00 91 1015.7
20260903121534 74 11 0.0 0.0 0.00 0.00 0.00 92 1015.5
20260903120039 74 11 0.0 0.0 0.00 0.00 0.00 91 1015.4
20260903114527 74 11 0.0 0.0 0.00 0.00 0.00 92 1015.3
20260903113044 74 11 0.0 0.0 0.00 0.00 0.00 91 1015.2
20260903111524 74 11 0.0 0.0 0.00 0.00 0.00 91 1015.1
20260903110022 74 11 0.0 0.0 0.00 0.00 0.00 90 1015.0
20260903104528 74 11 0.0 0.0 0.00 0.00 0.00 90 1014.9
20260903103029 74 11 0.0 0.0 0.00 0.00 0.00 89 1014.8
20260903101525 75 11 0.0 0.0 0.00 0.00 0.00 89 1014.7
20260903100023 75 11 0.0 0.0 0.00 0.00 0.00 88 1014.6
20260903094526 75 11 0.0 0.0 0.00 0.00 0.00 88 1014.5